Year,Month,Day,Hour,Minute,Value (Times are PST for temperature in C)
2015,05,04,11,08,13.60
2015,05,04,11,09,13.60
2015,05,04,11,10,13.70
2015,05,04,11,11,13.70
2015,05,04,11,12,13.70
2015,05,04,11,13,13.70
2015,05,04,11,14,13.80
2015,05,04,11,15,13.80
2015,05,04,11,16,13.90
2015,05,04,11,17,13.90
2015,05,04,11,18,13.90
2015,05,04,11,19,13.90
2015,05,04,11,20,13.90
2015,05,04,11,21,13.90
2015,05,04,11,22,13.90
2015,05,04,11,23,13.90
2015,05,04,11,24,14.00
2015,05,04,11,25,14.00
2015,05,04,11,26,14.00
2015,05,04,11,27,14.00
2015,05,04,11,28,14.00
2015,05,04,11,29,14.00
2015,05,04,11,30,14.00
2015,05,04,11,31,14.00
2015,05,04,11,32,14.00
2015,05,04,11,33,14.10
2015,05,04,11,34,14.10
2015,05,04,11,35,14.10
2015,05,04,11,36,14.20
2015,05,04,11,37,14.30
2015,05,04,11,38,14.30
2015,05,04,11,39,14.40
2015,05,04,11,40,14.40
2015,05,04,11,41,14.50
2015,05,04,11,42,14.50
2015,05,04,11,43,14.50
2015,05,04,11,44,14.50
2015,05,04,11,45,14.50
2015,05,04,11,46,14.50
2015,05,04,11,47,14.50
2015,05,04,11,48,14.50
2015,05,04,11,49,14.60
2015,05,04,11,50,14.70
2015,05,04,11,51,14.70
2015,05,04,11,52,14.80
2015,05,04,11,53,14.80
2015,05,04,11,54,14.80
2015,05,04,11,55,14.80
2015,05,04,11,56,14.90
2015,05,04,11,57,15.00
2015,05,04,11,58,15.10
2015,05,04,11,59,15.20
2015,05,04,12,00,15.30
2015,05,04,12,01,15.30
2015,05,04,12,02,15.30
2015,05,04,12,03,15.30
2015,05,04,12,04,15.30
2015,05,04,12,05,15.30
2015,05,04,12,06,15.40
2015,05,04,12,07,15.40
2015,05,04,12,08,15.50
2015,05,04,12,09,15.50
2015,05,04,12,10,15.50
2015,05,04,12,11,15.60
2015,05,04,12,12,15.60
2015,05,04,12,13,15.70
2015,05,04,12,14,15.70
2015,05,04,12,15,15.80
2015,05,04,12,16,15.80
2015,05,04,12,17,15.80
2015,05,04,12,18,15.80
2015,05,04,12,19,15.90
2015,05,04,12,20,15.90
2015,05,04,12,21,15.90
2015,05,04,12,22,15.90
2015,05,04,12,23,15.90
2015,05,04,12,24,16.00
2015,05,04,12,25,16.10
2015,05,04,12,26,16.20
2015,05,04,12,27,16.20
2015,05,04,12,28,16.10
2015,05,04,12,29,16.10
2015,05,04,12,30,16.20
2015,05,04,12,31,16.40
2015,05,04,12,32,16.50
2015,05,04,12,33,16.60
2015,05,04,12,34,16.60
2015,05,04,12,35,16.70
2015,05,04,12,36,16.70
2015,05,04,12,37,16.70
2015,05,04,12,38,16.50
2015,05,04,12,39,16.40
2015,05,04,12,40,16.40
2015,05,04,12,41,16.30
2015,05,04,12,42,16.20
2015,05,04,12,43,16.20
2015,05,04,12,44,16.20
2015,05,04,12,45,16.30
2015,05,04,12,46,16.10
2015,05,04,12,47,16.10
2015,05,04,12,48,16.10
2015,05,04,12,49,16.10
2015,05,04,12,50,16.10
2015,05,04,12,51,16.10
2015,05,04,12,52,15.90
2015,05,04,12,53,15.80
2015,05,04,12,54,16.00
2015,05,04,12,55,16.20
2015,05,04,12,56,16.20
2015,05,04,12,57,16.40
2015,05,04,12,58,16.40
2015,05,04,12,59,16.40
2015,05,04,13,00,16.40
2015,05,04,13,01,16.30
2015,05,04,13,02,16.20
2015,05,04,13,03,16.20
2015,05,04,13,04,16.20
2015,05,04,13,05,16.20
2015,05,04,13,06,16.30
2015,05,04,13,07,16.40
2015,05,04,13,08,16.40
2015,05,04,13,09,16.60
2015,05,04,13,10,16.60
2015,05,04,13,11,16.60
2015,05,04,13,12,16.60
2015,05,04,13,13,16.60
2015,05,04,13,14,16.70
2015,05,04,13,15,16.70
2015,05,04,13,16,16.70
2015,05,04,13,17,16.80
2015,05,04,13,18,16.90
2015,05,04,13,19,17.00
2015,05,04,13,20,17.00
2015,05,04,13,21,17.00
2015,05,04,13,22,17.10
2015,05,04,13,23,17.20
2015,05,04,13,24,17.20
2015,05,04,13,25,17.10
2015,05,04,13,26,17.10
2015,05,04,13,27,17.10
2015,05,04,13,28,17.20
2015,05,04,13,29,17.30
2015,05,04,13,30,17.30
2015,05,04,13,31,17.30
2015,05,04,13,32,17.30
2015,05,04,13,33,17.30
2015,05,04,13,34,17.30
2015,05,04,13,35,17.30
2015,05,04,13,36,17.30
2015,05,04,13,37,17.30
2015,05,04,13,38,17.10
2015,05,04,13,39,17.00
2015,05,04,13,40,17.00
2015,05,04,13,41,17.00
2015,05,04,13,42,16.90
2015,05,04,13,43,16.80
2015,05,04,13,44,16.80
2015,05,04,13,45,16.70
2015,05,04,13,46,16.70
2015,05,04,13,47,16.70
2015,05,04,13,48,16.50
2015,05,04,13,49,16.40
2015,05,04,13,50,16.40
2015,05,04,13,51,16.50
2015,05,04,13,52,16.60
2015,05,04,13,53,16.60
2015,05,04,13,54,16.70
2015,05,04,13,55,16.80
2015,05,04,13,56,16.70
2015,05,04,13,57,16.70
2015,05,04,13,58,16.70
2015,05,04,13,59,16.60
2015,05,04,14,00,16.50
2015,05,04,14,01,16.40
2015,05,04,14,02,16.40
2015,05,04,14,03,16.40
2015,05,04,14,04,16.40
2015,05,04,14,05,16.40
2015,05,04,14,06,16.40
2015,05,04,14,07,16.40
2015,05,04,14,08,16.50
2015,05,04,14,09,16.60
2015,05,04,14,10,16.60
2015,05,04,14,11,16.70
2015,05,04,14,12,16.70
2015,05,04,14,13,16.70
2015,05,04,14,14,16.70
2015,05,04,14,15,16.90
2015,05,04,14,16,17.00
2015,05,04,14,17,17.10
2015,05,04,14,18,17.20
2015,05,04,14,19,17.20
2015,05,04,14,20,17.20
2015,05,04,14,21,17.20
2015,05,04,14,22,17.20
2015,05,04,14,23,17.20
2015,05,04,14,24,17.30
2015,05,04,14,25,17.40
2015,05,04,14,26,17.60
2015,05,04,14,27,17.70
2015,05,04,14,28,17.80
2015,05,04,14,29,17.80
2015,05,04,14,30,17.90
2015,05,04,14,31,17.90
2015,05,04,14,32,17.80
2015,05,04,14,33,17.60
2015,05,04,14,34,17.50
2015,05,04,14,35,17.50
2015,05,04,14,36,17.50
2015,05,04,14,37,17.50
2015,05,04,14,38,17.50
2015,05,04,14,39,17.40
2015,05,04,14,40,17.40
2015,05,04,14,41,17.50
2015,05,04,14,42,17.50
2015,05,04,14,43,17.50
2015,05,04,14,44,17.70
2015,05,04,14,45,17.70
2015,05,04,14,46,17.70
2015,05,04,14,47,17.70
2015,05,04,14,48,17.70
2015,05,04,14,49,17.70
2015,05,04,14,50,17.70
2015,05,04,14,51,17.70
2015,05,04,14,52,17.70
2015,05,04,14,53,17.80
2015,05,04,14,54,17.80
2015,05,04,14,55,17.80
2015,05,04,14,56,17.70
2015,05,04,14,57,17.50
2015,05,04,14,58,17.40
2015,05,04,14,59,17.30
2015,05,04,15,00,17.30
2015,05,04,15,01,17.30
2015,05,04,15,02,17.30
2015,05,04,15,03,17.30
2015,05,04,15,04,17.30
2015,05,04,15,05,17.30
2015,05,04,15,06,17.30
2015,05,04,15,07,17.30
2015,05,04,15,08,17.30
2015,05,04,15,09,17.40
2015,05,04,15,10,17.30
2015,05,04,15,11,17.00
2015,05,04,15,12,16.90
2015,05,04,15,13,16.80
2015,05,04,15,14,16.70
2015,05,04,15,15,16.50
2015,05,04,15,16,16.40
2015,05,04,15,17,16.40
2015,05,04,15,18,16.40
2015,05,04,15,19,16.40
2015,05,04,15,20,16.40
2015,05,04,15,21,16.50
2015,05,04,15,22,16.60
2015,05,04,15,23,16.70
2015,05,04,15,24,16.60
2015,05,04,15,25,16.40
2015,05,04,15,26,16.30
2015,05,04,15,27,16.20
2015,05,04,15,28,16.10
2015,05,04,15,29,16.10
2015,05,04,15,30,16.00
2015,05,04,15,31,15.90
2015,05,04,15,32,15.80
2015,05,04,15,33,15.80
2015,05,04,15,34,15.70
2015,05,04,15,35,15.60
2015,05,04,15,36,15.50
2015,05,04,15,37,15.40
2015,05,04,15,38,15.30
2015,05,04,15,39,15.20
2015,05,04,15,40,15.10
2015,05,04,15,41,15.00
2015,05,04,15,42,14.90
2015,05,04,15,43,14.80
2015,05,04,15,44,14.70
2015,05,04,15,45,14.70
2015,05,04,15,46,14.70
2015,05,04,15,47,14.70
2015,05,04,15,48,14.70
2015,05,04,15,49,14.70
2015,05,04,15,50,14.70
2015,05,04,15,51,14.70
2015,05,04,15,52,14.70
2015,05,04,15,53,14.80
2015,05,04,15,54,14.80
2015,05,04,15,55,14.80
2015,05,04,15,56,14.80
2015,05,04,15,57,14.80
2015,05,04,15,58,14.80
2015,05,04,15,59,14.80
2015,05,04,16,00,14.70
2015,05,04,16,01,14.70
2015,05,04,16,02,14.60
2015,05,04,16,03,14.60
2015,05,04,16,04,14.50
2015,05,04,16,05,14.50
2015,05,04,16,06,14.50
2015,05,04,16,07,14.40
2015,05,04,16,08,14.30
2015,05,04,16,09,14.30
2015,05,04,16,10,14.30
2015,05,04,16,11,14.20
2015,05,04,16,12,14.20
2015,05,04,16,13,14.10
2015,05,04,16,14,14.10
2015,05,04,16,15,14.00
2015,05,04,16,16,14.00
2015,05,04,16,17,14.00
2015,05,04,16,18,13.90
2015,05,04,16,19,13.90
2015,05,04,16,20,13.80
2015,05,04,16,21,13.80
2015,05,04,16,22,13.80
2015,05,04,16,23,13.70
2015,05,04,16,24,13.70
2015,05,04,16,25,13.70
2015,05,04,16,26,13.70
2015,05,04,16,27,13.70
2015,05,04,16,28,13.60
2015,05,04,16,29,13.60
2015,05,04,16,30,13.50
2015,05,04,16,31,13.50
2015,05,04,16,32,13.50
2015,05,04,16,33,13.40
2015,05,04,16,34,13.40
2015,05,04,16,35,13.40
2015,05,04,16,36,13.40
2015,05,04,16,37,13.40
2015,05,04,16,38,13.30
2015,05,04,16,39,13.30
2015,05,04,16,40,13.30
2015,05,04,16,41,13.30
2015,05,04,16,42,13.20
2015,05,04,16,43,13.20
2015,05,04,16,44,13.20
2015,05,04,16,45,13.20
2015,05,04,16,46,13.20
2015,05,04,16,47,13.10
2015,05,04,16,48,13.10
2015,05,04,16,49,13.20
2015,05,04,16,50,13.20
2015,05,04,16,51,13.20
2015,05,04,16,52,13.20
2015,05,04,16,53,13.30
2015,05,04,16,54,13.20
2015,05,04,16,55,13.30
2015,05,04,16,56,13.30
2015,05,04,16,57,13.30
2015,05,04,16,58,13.30
2015,05,04,16,59,13.30
2015,05,04,17,00,13.30
2015,05,04,17,01,13.30
2015,05,04,17,02,13.40
2015,05,04,17,03,13.50
2015,05,04,17,04,13.50
2015,05,04,17,05,13.60
2015,05,04,17,06,13.60
2015,05,04,17,07,13.60
2015,05,04,17,08,13.60
2015,05,04,17,09,13.60
2015,05,04,17,10,13.60
2015,05,04,17,11,13.70
2015,05,04,17,12,13.70
2015,05,04,17,13,13.70
2015,05,04,17,14,13.70
2015,05,04,17,15,13.70
2015,05,04,17,16,13.70
2015,05,04,17,17,13.60
2015,05,04,17,18,13.50
2015,05,04,17,19,13.50
2015,05,04,17,20,13.40
2015,05,04,17,21,13.40
2015,05,04,17,22,13.30
2015,05,04,17,23,13.30
2015,05,04,17,24,13.30
2015,05,04,17,25,13.30
2015,05,04,17,26,13.30
2015,05,04,17,27,13.20
2015,05,04,17,28,13.20
2015,05,04,17,29,13.20
2015,05,04,17,30,13.20
2015,05,04,17,31,13.10
2015,05,04,17,32,13.10
2015,05,04,17,33,13.00
2015,05,04,17,34,13.10
2015,05,04,17,35,13.10
2015,05,04,17,36,13.10
2015,05,04,17,37,13.10
2015,05,04,17,38,13.20
2015,05,04,17,39,13.20
2015,05,04,17,40,13.20
2015,05,04,17,41,13.30
2015,05,04,17,42,13.30
2015,05,04,17,43,13.30
2015,05,04,17,44,13.30
2015,05,04,17,45,13.30
2015,05,04,17,46,13.30
2015,05,04,17,47,13.30
2015,05,04,17,48,13.30
2015,05,04,17,49,13.30
2015,05,04,17,50,13.30
2015,05,04,17,51,13.30
2015,05,04,17,52,13.30
2015,05,04,17,53,13.30
2015,05,04,17,54,13.30
2015,05,04,17,55,13.30
2015,05,04,17,56,13.30
2015,05,04,17,57,13.30
2015,05,04,17,58,13.30
2015,05,04,17,59,13.30
2015,05,04,18,00,13.30
2015,05,04,18,01,13.20
2015,05,04,18,02,13.20
2015,05,04,18,03,13.20
2015,05,04,18,04,13.20
2015,05,04,18,05,13.10
2015,05,04,18,06,13.10
2015,05,04,18,07,13.10
2015,05,04,18,08,13.10
2015,05,04,18,09,13.10
2015,05,04,18,10,13.10
2015,05,04,18,11,13.10
2015,05,04,18,12,13.10
2015,05,04,18,13,13.00
2015,05,04,18,14,13.00
2015,05,04,18,15,13.00
2015,05,04,18,16,13.00
2015,05,04,18,17,12.90
2015,05,04,18,18,12.90
2015,05,04,18,19,12.90
2015,05,04,18,20,12.90
2015,05,04,18,21,12.80
2015,05,04,18,22,12.90
2015,05,04,18,23,12.90
2015,05,04,18,24,12.90
2015,05,04,18,25,12.90
2015,05,04,18,26,12.90
2015,05,04,18,27,12.80
2015,05,04,18,28,12.80
2015,05,04,18,29,12.80
2015,05,04,18,30,12.80
2015,05,04,18,31,12.80
2015,05,04,18,32,12.80
2015,05,04,18,33,12.80
2015,05,04,18,34,12.80
2015,05,04,18,35,12.80
2015,05,04,18,36,12.80
2015,05,04,18,37,12.80
2015,05,04,18,38,12.80
2015,05,04,18,39,12.80
2015,05,04,18,40,12.80
2015,05,04,18,41,12.80
2015,05,04,18,42,12.80
2015,05,04,18,43,12.80
2015,05,04,18,44,12.80
2015,05,04,18,45,12.70
2015,05,04,18,46,12.70
2015,05,04,18,47,12.70
2015,05,04,18,48,12.70
2015,05,04,18,49,12.70
2015,05,04,18,50,12.70
2015,05,04,18,51,12.70
2015,05,04,18,52,12.60
2015,05,04,18,53,12.60
2015,05,04,18,54,12.60
2015,05,04,18,55,12.60
2015,05,04,18,56,12.60
2015,05,04,18,57,12.60
2015,05,04,18,58,12.60
2015,05,04,18,59,12.60
2015,05,04,19,00,12.60
2015,05,04,19,01,12.60
2015,05,04,19,02,12.60
2015,05,04,19,03,12.70
2015,05,04,19,04,12.70
2015,05,04,19,05,12.70
2015,05,04,19,06,12.70
2015,05,04,19,07,12.70
2015,05,04,19,08,12.70
2015,05,04,19,09,12.70
2015,05,04,19,10,12.60
2015,05,04,19,11,12.60
2015,05,04,19,12,12.60
2015,05,04,19,13,12.60
2015,05,04,19,14,12.50
2015,05,04,19,15,12.50
2015,05,04,19,16,12.50
2015,05,04,19,17,12.50
2015,05,04,19,18,12.50
2015,05,04,19,19,12.50
2015,05,04,19,20,12.50
2015,05,04,19,21,12.50
2015,05,04,19,22,12.50
2015,05,04,19,23,12.50
2015,05,04,19,24,12.50
2015,05,04,19,25,12.50
2015,05,04,19,26,12.50
2015,05,04,19,27,12.40
2015,05,04,19,28,12.40
2015,05,04,19,29,12.40
2015,05,04,19,30,12.40
2015,05,04,19,31,12.40
2015,05,04,19,32,12.40
2015,05,04,19,33,12.40
2015,05,04,19,34,12.30
2015,05,04,19,35,12.30
2015,05,04,19,36,12.30
2015,05,04,19,37,12.30
2015,05,04,19,38,12.30
2015,05,04,19,39,12.30
2015,05,04,19,40,12.30
2015,05,04,19,41,12.20
2015,05,04,19,42,12.20
2015,05,04,19,43,12.20
2015,05,04,19,44,12.20
2015,05,04,19,45,12.10
2015,05,04,19,46,12.10
2015,05,04,19,47,12.10
2015,05,04,19,48,12.10
2015,05,04,19,49,12.10
2015,05,04,19,50,12.00
2015,05,04,19,51,12.00
2015,05,04,19,52,12.00
2015,05,04,19,53,12.00
2015,05,04,19,54,12.00
2015,05,04,19,55,12.00
2015,05,04,19,56,11.90
2015,05,04,19,57,11.90
2015,05,04,19,58,11.90
2015,05,04,19,59,11.90
2015,05,04,20,00,11.90
2015,05,04,20,01,11.80
2015,05,04,20,02,11.80
2015,05,04,20,03,11.80
2015,05,04,20,04,11.80
2015,05,04,20,05,11.80
2015,05,04,20,06,11.80
2015,05,04,20,07,11.80
2015,05,04,20,08,11.80
2015,05,04,20,09,11.80
2015,05,04,20,10,11.70
2015,05,04,20,11,11.70
2015,05,04,20,12,11.70
2015,05,04,20,13,11.70
2015,05,04,20,14,11.60
2015,05,04,20,15,11.60
2015,05,04,20,16,11.60
2015,05,04,20,17,11.60
2015,05,04,20,18,11.60
2015,05,04,20,19,11.60
2015,05,04,20,20,11.60
2015,05,04,20,21,11.60
2015,05,04,20,22,11.60
2015,05,04,20,23,11.60
2015,05,04,20,24,11.60
2015,05,04,20,25,11.60
2015,05,04,20,26,11.60
2015,05,04,20,27,11.50
2015,05,04,20,28,11.40
2015,05,04,20,29,11.40
2015,05,04,20,30,11.40
2015,05,04,20,31,11.40
2015,05,04,20,32,11.40
2015,05,04,20,33,11.30
2015,05,04,20,34,11.30
2015,05,04,20,35,11.30
2015,05,04,20,36,11.30
2015,05,04,20,37,11.20
2015,05,04,20,38,11.20
2015,05,04,20,39,11.20
2015,05,04,20,40,11.20
2015,05,04,20,41,11.20
2015,05,04,20,42,11.20
2015,05,04,20,43,11.20
2015,05,04,20,44,11.20
2015,05,04,20,45,11.20
2015,05,04,20,46,11.20
2015,05,04,20,47,11.20
2015,05,04,20,48,11.20
2015,05,04,20,49,11.20
2015,05,04,20,50,11.20
2015,05,04,20,51,11.20
